Vorticity
nan nan nan nan nan nan nan nan nan nan nan nan nan nan nan nan nan nan nan nan nan nan nan nan nan nan nan nan nan nan nan nan nan nan nan nan nan nan nan nan nan nan nan
nan 10 8 6 5 5 5 4 4 5 5 5 4 3 4 4 4 5 6 5 4 8 14 10 6 6 3 3 3 3 3 4 5 5 3 2 2 5 5 6 7 6 nan
nan 6 7 8 6 6 6 5 5 5 5 4 3 4 5 4 4 5 5 4 4 10 14 10 9 8 5 3 2 3 4 5 4 6 7 7 3 6 6 7 6 6 nan
nan 6 9 8 6 6 6 5 5 5 6 5 5 4 5 4 5 5 6 6 6 6 7 9 9 6 5 4 4 5 5 4 4 5 10 8 4 5 7 7 5 4 nan
nan 7 10 8 6 6 5 5 5 5 6 5 5 4 5 5 5 6 6 6 5 6 6 5 6 5 4 4 5 5 4 3 4 6 10 6 5 5 6 6 6 4 nan
nan 9 10 7 6 6 6 6 5 5 5 7 5 4 5 5 5 6 7 7 6 5 4 4 4 5 5 5 5 4 3 4 5 11 11 6 3 5 3 7 9 11 nan
nan 8 9 9 6 6 5 5 6 6 6 7 6 5 6 5 5 6 7 7 7 6 5 5 5 4 4 4 4 3 3 6 8 11 8 6 6 7 7 6 7 11 nan
nan 6 7 8 6 5 6 5 6 6 7 5 5 6 5 4 5 5 6 6 6 6 5 5 5 4 4 3 4 4 4 6 9 10 7 5 7 6 8 6 7 6 nan
nan 5 6 7 8 7 5 5 6 6 7 7 6 5 5 5 5 5 5 5 5 5 5 4 5 5 5 4 4 4 5 6 10 9 5 6 7 6 7 6 7 8 nan
nan 5 6 7 6 6 8 8 7 7 6 6 4 4 6 6 5 5 4 5 5 4 4 5 6 5 4 4 4 5 8 9 8 6 6 8 7 7 7 8 8 7 nan
nan 6 6 6 6 6 8 9 8 6 5 5 6 5 3 5 8 7 7 7 6 5 5 5 5 4 4 5 5 7 9 11 7 6 6 9 7 7 8 8 6 6 nan
nan 6 6 6 6 6 5 6 7 6 6 6 6 5 6 8 8 7 8 8 6 5 6 6 5 5 5 5 7 8 9 8 6 6 7 7 8 8 7 5 6 6 nan
nan 6 7 5 6 5 4 4 5 7 8 8 7 6 6 7 7 7 7 8 8 7 7 7 6 8 9 8 7 8 8 7 6 6 7 8 9 10 4 4 6 6 nan
nan 6 6 6 5 4 5 7 6 6 6 7 8 7 6 7 8 7 7 8 7 8 8 6 7 8 9 10 8 8 7 7 7 7 7 10 11 9 6 5 5 6 nan
nan 8 7 6 5 5 5 6 7 6 7 7 7 7 6 8 8 6 7 7 8 7 7 8 8 7 7 7 8 8 8 8 8 7 8 8 12 8 5 5 5 5 nan
nan 11 9 6 6 5 6 6 5 7 7 7 7 9 7 6 7 7 7 7 8 8 9 10 9 7 6 6 7 8 8 8 8 7 7 7 8 6 5 5 5 5 nan
nan 12 12 8 7 6 5 4 6 7 8 7 8 9 7 6 8 7 7 8 9 9 9 7 8 8 7 7 7 7 8 8 9 7 6 7 6 6 6 5 5 6 nan
nan 11 11 11 9 6 5 5 6 8 7 8 9 10 9 7 7 7 8 9 8 8 7 7 6 6 7 7 6 8 8 8 10 8 6 7 5 6 6 5 6 6 nan
nan 8 11 14 10 7 6 6 8 7 6 7 9 12 10 7 8 8 8 9 8 7 8 6 7 8 6 7 8 9 8 9 8 8 8 7 7 6 6 6 5 3 nan
nan 8 9 11 12 8 6 7 8 8 9 8 7 10 10 8 8 7 8 9 7 7 7 8 7 8 9 8 8 8 8 8 9 9 7 7 8 7 8 6 4 3 nan
nan 11 9 8 10 8 7 8 9 8 7 6 8 10 9 9 8 5 7 7 8 9 8 6 7 7 7 9 8 7 8 9 10 8 8 9 9 8 8 7 6 6 nan
nan 7 9 11 10 8 5 6 9 11 8 11 8 9 12 10 7 7 7 6 7 7 9 7 6 6 7 9 9 8 8 6 8 9 10 10 9 8 7 7 8 9 nan
nan 9 10 9 11 12 8 1 5 8 10 11 12 11 12 10 9 7 8 9 6 7 9 8 8 7 6 7 10 10 10 10 6 7 9 10 9 7 6 6 7 9 nan
nan 9 8 9 9 11 12 9 6 4 6 8 9 8 13 14 9 9 9 8 7 7 9 9 8 8 9 8 6 7 10 14 9 7 7 7 8 6 6 7 7 8 nan
nan 13 12 12 9 10 11 7 6 8 6 10 14 10 7 11 11 10 10 8 7 8 10 9 9 8 8 10 9 8 7 8 10 10 7 6 8 7 7 6 9 9 nan
nan nan nan nan nan nan nan nan nan nan nan nan nan nan nan nan nan nan nan nan nan nan nan nan nan nan nan nan nan nan nan nan nan nan nan nan nan nan nan nan nan nan nan
CAPE
776 1255 2092 1765 1470 1439 1263 1152 1107 1008 727 410 128 29 0 0 0 0 0 0 9 3 0 0 68 73 40 20 12 0 0 0 0 0 0 0 0 0 0 0 0 0 0
961 1260 1902 1898 1793 1530 1334 1022 1007 833 442 194 63 8 2 0 0 0 2 22 17 3 7 3 8 75 57 41 3 0 0 0 0 0 0 0 0 0 0 0 0 0 0
1094 1233 1358 1771 1730 1643 1274 758 858 563 338 213 45 10 8 4 0 0 0 7 7 9 8 3 6 78 84 58 7 0 0 0 0 0 0 0 0 0 0 0 0 0 0
1036 1166 1119 1487 1460 1236 888 621 566 543 449 300 155 41 5 5 0 0 0 4 12 19 19 16 42 84 64 21 2 0 0 0 0 0 0 0 0 0 0 0 0 0 3
1103 1136 1040 1328 1328 999 840 653 558 488 425 476 219 16 0 1 0 0 0 0 11 42 33 13 12 15 3 0 0 0 0 0 1 0 0 0 0 1 5 1 0 0 0
1007 867 1124 1294 1216 1038 828 515 331 273 151 145 181 5 0 0 0 0 0 0 3 6 4 0 0 0 0 0 0 0 0 0 0 0 0 0 0 14 6 1 3 36 37
874 847 1021 1341 1152 766 497 245 154 138 84 181 59 2 0 0 0 0 0 0 0 1 2 0 1 0 0 0 0 0 0 0 0 0 1 0 1 64 53 103 65 59 107
925 885 940 1109 1065 853 482 208 177 182 73 66 17 0 0 2 1 0 0 0 0 0 0 0 0 0 0 0 0 0 0 0 0 6 5 19 59 48 44 21 37 47 41
769 715 785 738 644 554 400 340 197 163 92 91 122 103 86 77 9 0 0 0 0 1 0 0 0 0 0 0 0 0 0 0 0 2 1 17 61 32 3 1 3 6 85
569 647 649 514 402 275 227 328 200 162 190 151 239 210 133 87 88 28 0 0 0 0 0 0 0 0 0 0 0 0 0 0 0 0 0 3 20 1 0 0 32 30 28
599 644 505 374 240 174 159 189 224 203 210 212 124 53 26 11 63 40 0 0 11 0 2 1 0 4 1 0 0 0 0 0 0 0 0 0 0 0 0 15 10 5 10
597 529 490 373 319 243 280 218 125 66 31 18 20 4 0 0 40 34 0 0 66 63 65 33 28 23 0 0 0 0 0 0 0 0 0 0 0 0 21 4 0 2 2
680 583 530 376 343 320 328 250 165 64 0 0 0 0 0 0 17 0 0 0 3 5 0 25 3 0 0 0 0 0 0 0 0 0 0 0 0 1 11 4 0 0 0
710 664 607 452 355 362 362 303 243 132 9 0 0 0 0 0 3 0 0 0 0 0 0 0 0 0 0 0 0 0 0 0 0 0 0 0 0 15 4 2 0 0 0
410 706 750 593 438 412 427 311 282 206 82 3 0 0 0 0 0 0 0 0 0 0 0 0 0 0 0 0 0 0 0 0 0 0 0 0 0 0 0 0 0 0 0
140 274 875 784 615 548 573 352 308 294 169 47 0 0 0 0 0 0 0 0 0 0 0 0 0 0 0 0 0 0 0 0 0 0 0 0 0 0 0 0 0 0 0
0 133 382 923 749 571 742 523 462 484 318 183 15 0 0 0 0 0 0 0 0 0 0 0 0 0 0 0 0 0 0 0 0 0 0 0 0 0 0 0 0 0 0
0 0 101 722 799 645 888 694 616 580 526 303 84 0 0 0 0 0 0 0 0 0 0 0 0 0 0 0 0 0 0 0 0 0 0 0 0 0 0 0 0 0 0
0 0 0 251 546 776 822 758 579 597 494 168 14 0 0 0 0 0 0 0 0 0 0 0 0 0 0 0 0 0 0 0 0 0 0 0 0 0 0 0 0 0 0
0 0 0 32 271 745 707 589 594 404 444 161 32 0 0 0 0 0 0 0 0 0 0 0 0 0 0 0 0 0 0 0 0 0 0 0 0 0 0 0 0 0 0
0 0 0 0 31 552 602 652 564 671 360 256 38 1 0 0 0 0 0 0 0 0 0 0 0 0 0 0 0 0 0 0 0 0 0 0 0 0 0 0 0 0 0
0 0 0 0 0 147 776 878 732 644 477 261 62 6 0 0 0 0 0 0 0 0 0 0 0 0 0 0 0 0 0 0 0 0 0 0 0 0 0 0 0 0 0
0 0 0 0 0 0 636 358 0 0 0 0 0 19 0 0 0 0 0 0 0 0 0 0 0 0 0 0 0 0 0 0 0 0 0 0 0 0 0 0 0 0 0
0 0 0 0 0 0 3 137 189 344 192 13 39 0 0 0 0 0 0 0 0 0 0 0 0 0 0 0 0 0 0 0 0 0 0 0 0 0 0 0 0 0 0
0 0 0 0 0 0 0 52 90 297 157 0 0 0 0 0 0 0 0 0 0 0 0 0 0 0 0 0 0 0 0 0 0 0 0 0 0 0 0 0 0 0 0
0 0 0 0 0 0 0 0 77 11 0 0 0 0 0 0 0 0 0 0 0 0 0 0 0 0 0 0 0 0 0 0 0 0 0 0 0 0 0 0 0 0 0